RH
19 12 8 7 7 8 9 8 6 6 7 9 13 18 58 74 91 100 99 71 94 100 100 100 100 98 91 93 100 100 100 100 100 100 100 100 100 100 100 100 100 100 86
17 11 8 12 9 10 7 6 6 6 7 9 11 25 65 92 99 100 100 90 100 100 100 100 100 100 100 100 100 100 100 100 100 100 100 100 100 100 97 85 78 69 78
12 12 15 17 12 9 7 5 5 6 9 10 13 17 29 100 100 100 100 96 100 100 100 100 100 100 100 100 100 100 100 100 100 99 98 97 83 95 100 94 78 81 82
12 12 17 23 14 9 6 5 4 6 12 15 16 17 52 100 96 96 100 100 100 100 100 100 100 99 100 94 100 88 100 97 83 84 87 88 100 100 100 95 81 89 88
14 14 16 23 14 9 6 5 5 6 15 18 20 35 72 82 90 100 100 100 100 100 100 100 100 100 100 100 100 89 90 73 67 86 100 100 100 100 100 93 84 100 84
17 14 21 26 21 12 7 6 6 6 19 22 26 100 100 100 100 100 100 100 100 100 100 100 100 100 100 100 100 100 100 94 98 100 100 100 100 100 88 94 94 98 92
20 14 24 36 27 20 11 9 9 7 20 24 31 100 100 100 100 100 100 100 100 100 100 100 98 100 100 100 100 100 100 99 100 100 100 96 97 93 100 100 96 95 93
23 19 18 42 35 25 13 12 12 10 24 24 27 65 100 100 100 100 100 100 100 100 100 100 100 100 100 100 78 100 92 86 100 100 100 72 65 76 96 98 99 88 76
25 31 29 26 41 31 17 10 14 14 25 25 29 36 100 100 100 100 100 100 100 100 100 100 100 100 100 100 100 100 100 100 100 100 74 55 68 80 99 95 76 75 75
32 38 46 40 39 37 27 14 14 21 26 26 32 71 100 100 100 100 100 100 100 100 100 100 100 100 100 100 100 100 92 100 73 60 69 94 93 89 77 68 78 88 74
38 48 59 62 52 47 39 24 18 22 31 26 32 51 100 100 100 100 100 100 100 100 100 100 100 100 100 100 100 100 100 100 100 100 100 100 100 91 96 99 87 89 79
42 56 66 76 75 72 49 44 22 21 32 38 31 36 95 100 100 100 100 100 100 100 100 100 100 100 100 100 100 100 100 100 100 100 100 100 100 100 100 94 98 100 84
38 52 73 82 81 84 77 60 51 27 25 39 51 51 36 48 94 100 100 100 100 100 100 100 100 100 100 100 100 100 100 100 100 100 100 100 100 100 100 99 96 84 86
33 45 62 81 85 86 84 73 67 68 56 37 36 38 42 46 69 98 100 100 100 100 100 100 100 100 100 100 100 100 100 100 100 100 100 100 100 98 82 96 94 79 85
40 40 58 73 84 86 86 81 70 69 73 88 62 36 41 57 71 86 100 100 100 100 100 100 100 100 100 100 100 100 100 100 100 100 100 100 100 100 95 87 83 93 100
42 41 44 63 75 84 90 88 79 71 74 79 87 68 49 47 57 82 100 100 100 100 100 100 100 100 100 96 97 100 100 100 100 100 91 83 88 92 100 100 100 100 88
32 41 44 45 70 78 84 90 93 89 83 80 76 69 68 53 50 64 100 100 100 100 100 100 100 100 100 100 100 100 100 100 97 98 100 100 100 100 100 100 79 89 72
20 30 49 49 47 63 78 82 87 94 96 91 90 86 84 80 56 65 57 55 86 99 100 100 100 100 100 100 100 100 100 100 100 100 100 100 97 89 74 58 40 53 48
16 19 27 44 53 51 55 63 79 90 90 93 97 93 92 83 84 84 78 61 58 60 73 98 98 94 84 69 50 52 55 73 86 87 78 65 48 41 37 50 48 42 37
17 18 18 20 31 48 57 55 57 71 79 74 83 98 98 94 91 86 83 85 90 88 77 60 51 45 41 43 44 51 57 62 57 44 49 51 48 44 42 41 39 37 35
13 16 18 18 17 24 35 52 66 64 62 68 75 75 81 87 87 87 90 88 88 89 85 76 68 63 59 54 54 59 58 56 50 43 38 39 42 42 41 38 32 30 33
12 12 14 16 18 18 19 28 39 52 70 79 76 79 80 82 85 88 79 68 64 65 64 62 60 60 61 61 59 58 56 53 52 52 48 43 40 39 34 31 31 34 37
13 13 12 12 14 18 20 19 22 30 41 48 52 60 59 67 68 61 55 54 49 44 41 39 36 39 40 40 43 43 42 43 42 40 38 36 33 30 28 29 30 34 41
10 12 14 13 12 14 18 21 22 22 23 27 27 34 43 46 45 46 50 49 46 40 36 33 32 31 34 35 38 39 38 38 36 32 31 30 27 30 28 30 38 41 35
10 10 10 14 15 14 14 16 19 20 21 23 25 29 32 35 38 37 35 34 32 32 32 32 34 35 36 34 32 29 28 26 24 24 25 28 27 29 34 35 38 35 33
10 10 11 12 14 17 17 14 14 15 18 18 23 25 27 29 32 32 32 31 31 32 31 32 33 33 32 29 28 28 27 26 26 27 27 28 31 34 38 35 32 23 17
Wind_Speed
59 61 60 62 62 65 68 74 77 81 81 89 94 101 102 107 101 98 92 89 81 79 78 72 66 68 70 71 71 69 67 68 66 67 69 74 77 74 74 79 80 80 80
56 59 57 58 59 61 65 68 74 75 80 88 91 102 114 107 104 98 93 89 81 81 78 73 66 63 65 66 67 63 62 65 67 70 72 71 75 79 79 79 80 81 80
53 56 55 54 56 56 60 63 70 78 85 89 93 102 112 111 107 100 96 87 83 80 81 78 74 72 71 70 68 66 65 66 66 67 70 73 75 75 77 76 78 81 80
53 52 51 52 52 54 56 61 71 80 90 92 95 101 108 112 112 104 94 87 87 83 82 85 81 80 78 74 74 73 68 70 70 71 71 72 75 76 80 80 81 77 74
54 49 49 49 51 50 54 61 69 83 92 92 90 97 109 110 108 102 94 90 90 91 90 91 85 81 78 80 78 77 76 75 71 69 70 75 76 77 80 82 78 79 79
54 48 47 47 45 46 52 60 70 83 93 93 99 105 104 110 110 106 101 98 94 95 95 94 92 87 83 80 82 82 80 79 79 77 78 78 79 79 84 81 83 83 82
53 50 46 46 44 43 50 60 69 84 99 101 101 110 117 105 105 101 97 99 101 100 99 97 93 93 90 85 82 81 84 86 84 86 85 83 84 86 86 91 90 89 89
52 51 47 45 44 41 49 58 69 89 100 100 101 110 114 106 103 104 97 101 103 103 100 94 93 91 92 91 95 95 94 93 83 87 86 90 95 94 91 91 90 93 96
53 50 50 47 45 42 45 57 70 92 102 99 99 101 107 106 104 107 96 96 101 98 97 95 90 91 91 91 94 89 87 87 88 88 92 93 87 94 95 93 97 97 99
55 52 52 49 46 44 41 52 69 90 100 97 99 109 110 106 98 109 105 100 99 94 93 96 97 95 95 97 95 97 98 93 98 98 94 93 98 99 96 98 100 105 105
57 55 53 51 49 46 42 45 58 89 101 99 100 110 112 111 101 114 110 104 105 103 99 101 101 101 101 97 96 96 97 97 93 95 101 99 96 99 101 102 106 105 107
61 59 57 54 52 50 46 41 52 74 101 103 101 106 120 121 117 116 117 108 107 104 105 106 104 106 105 104 99 96 97 101 102 104 102 103 103 103 105 108 110 111 118
64 63 61 59 57 54 51 46 41 55 88 107 106 105 105 112 124 122 117 110 107 111 105 104 104 104 102 103 100 99 100 104 103 105 104 106 107 106 109 114 118 121 123
68 67 65 63 60 59 57 53 48 47 58 90 111 110 107 108 110 115 118 115 112 108 110 106 106 108 102 102 104 104 104 106 107 109 111 112 114 118 122 122 124 129 128
71 71 69 67 65 62 61 59 55 49 52 63 84 109 114 107 111 112 120 114 112 113 119 114 113 113 112 110 110 108 112 113 114 117 117 118 118 123 129 130 128 130 133
73 72 72 70 68 66 64 62 61 57 52 53 65 83 99 108 112 114 119 124 123 128 127 124 117 113 118 120 117 117 117 118 122 120 122 126 126 127 128 133 134 133 136
74 72 71 73 73 72 70 68 65 63 60 56 56 58 79 96 105 116 119 125 126 125 124 124 120 121 123 123 121 120 122 127 129 126 123 128 134 136 139 116 132 118 121
72 74 73 71 73 74 74 72 71 69 68 64 63 60 61 65 88 88 94 112 126 130 132 128 126 129 130 125 127 129 125 128 132 132 133 136 133 134 118 114 119 108 104
73 73 74 73 72 74 75 75 74 74 73 71 70 69 69 67 67 69 75 93 98 98 109 125 126 127 129 131 132 126 126 124 127 118 107 102 116 115 109 99 99 99 101
72 72 73 74 73 72 75 76 76 77 76 74 74 75 74 74 74 73 71 71 71 75 82 93 103 109 115 112 110 104 103 101 105 115 115 103 94 94 97 100 101 101 99
71 71 71 71 73 74 74 74 75 77 77 76 76 75 74 75 76 76 77 77 77 78 78 78 79 80 80 81 81 82 82 84 87 89 91 95 98 99 99 98 97 94 92
67 68 70 70 70 72 74 76 76 76 79 80 79 78 78 77 75 76 78 79 79 80 81 83 84 84 85 86 88 89 90 91 92 93 95 95 95 94 93 91 89 88 88
66 67 69 68 69 69 70 73 77 79 79 79 79 80 79 78 80 81 81 81 81 80 80 81 81 81 80 81 83 84 86 87 87 89 88 88 88 87 86 87 87 87 87
58 63 65 66 68 69 70 71 71 74 77 79 77 75 76 78 79 78 78 78 79 79 79 78 76 75 75 75 76 77 79 81 82 83 83 83 83 82 81 82 82 84 86
51 54 59 65 66 67 70 71 71 69 68 68 66 69 72 74 75 75 76 77 77 77 75 73 72 72 72 72 73 74 75 77 79 79 78 77 76 77 78 80 82 85 89
42 47 52 57 62 66 68 68 67 67 67 66 62 65 66 68 70 72 73 73 71 71 69 68 68 69 70 71 72 72 74 75 75 75 75 74 75 76 79 82 85 89 91
Wind_Direction
245 246 244 244 240 236 234 234 234 231 226 225 221 222 221 222 222 222 222 222 225 230 237 240 242 245 246 247 249 251 253 255 258 261 264 265 268 272 274 279 278 278 280
239 244 243 243 241 237 237 233 231 229 225 221 219 218 219 220 221 222 224 224 228 232 233 232 237 240 243 245 246 248 252 253 256 260 264 266 268 272 274 276 279 281 283
236 241 242 242 240 237 236 234 228 222 219 218 217 217 219 219 221 223 223 223 227 228 232 234 236 238 243 243 241 246 250 249 252 259 262 265 268 273 276 278 278 279 283
236 238 238 240 240 241 236 230 224 216 213 213 215 216 214 218 221 224 222 222 225 228 233 238 241 241 245 242 243 247 252 253 256 260 264 266 271 273 276 276 277 283 289
237 236 237 237 240 239 233 228 223 214 210 211 216 214 216 220 220 222 225 224 225 229 235 239 239 243 245 247 247 252 256 261 262 263 266 269 271 274 274 277 280 285 286
238 234 236 235 239 240 232 227 222 214 208 207 210 209 213 217 219 223 225 227 228 232 236 237 240 244 246 248 251 254 257 258 262 263 265 269 270 273 275 278 280 283 284
237 236 234 235 236 239 233 229 222 212 207 209 210 208 215 216 219 223 229 228 230 230 232 237 239 242 244 248 251 254 255 257 260 260 264 268 270 272 276 276 278 282 283
233 238 234 234 236 239 233 228 222 210 206 211 213 213 216 218 221 222 225 229 229 231 234 236 239 242 245 250 252 257 259 260 259 260 264 269 273 274 275 275 279 280 283
230 233 236 231 232 239 233 227 219 211 208 210 214 215 212 218 221 223 222 226 228 231 234 237 243 245 248 249 250 252 256 258 261 264 265 269 271 272 273 277 281 283 286
227 229 232 233 230 233 237 228 219 213 211 213 214 214 213 220 223 226 226 228 231 233 237 238 242 245 247 250 252 255 258 259 259 262 269 269 269 272 275 276 279 281 284
224 226 228 231 233 232 235 228 223 214 214 216 214 216 216 220 224 228 227 230 232 234 236 238 242 247 249 253 255 256 259 261 264 267 269 269 270 273 275 278 282 286 287
221 223 225 227 229 231 232 235 225 219 214 220 220 218 218 221 225 229 231 236 235 237 239 241 244 247 250 253 256 258 260 260 264 268 268 269 272 277 280 282 284 285 289
221 222 223 225 227 228 229 228 231 222 220 219 221 224 227 228 228 232 232 236 240 240 241 243 245 249 251 253 256 259 261 265 266 267 269 271 275 278 279 282 287 287 291
223 222 222 224 226 228 228 227 225 224 224 222 222 226 227 230 231 230 234 237 240 240 243 244 247 250 253 255 256 258 260 262 264 267 271 272 275 277 279 286 287 290 290
224 223 223 223 224 227 228 229 227 225 223 224 224 225 228 231 233 232 234 237 239 242 243 246 250 253 253 256 258 259 261 263 266 268 272 274 277 280 284 286 287 289 288
222 226 225 224 225 226 228 229 230 229 228 226 227 226 228 231 232 234 236 239 241 244 247 249 250 250 256 260 261 262 266 268 272 272 275 275 278 280 281 282 284 284 286
222 223 226 226 225 227 227 228 229 230 231 231 232 232 230 232 233 234 236 238 241 245 247 249 254 253 255 258 260 263 266 266 269 270 274 273 276 279 282 284 285 286 287
220 222 225 227 227 227 228 229 229 230 231 231 233 235 236 236 235 237 241 242 243 245 246 249 253 254 257 259 262 261 264 265 266 271 272 275 277 279 283 283 286 283 283
224 220 221 223 227 228 230 231 231 230 232 231 232 235 237 238 238 240 243 245 247 249 251 251 254 257 259 262 263 263 266 265 267 271 274 281 279 280 281 281 282 283 283
227 227 222 220 221 224 228 231 232 233 234 234 234 235 237 240 241 243 245 246 249 251 252 254 256 257 259 262 265 266 267 268 270 273 276 275 276 278 280 281 282 283 285
225 226 228 226 222 220 222 226 231 234 237 238 238 238 239 242 244 246 248 248 249 251 253 255 257 259 261 263 266 268 268 269 270 272 275 277 278 279 281 282 283 285 286
227 226 227 227 227 226 224 223 225 229 233 236 238 240 242 244 246 249 251 252 252 253 255 256 258 260 262 265 267 269 270 272 273 274 275 276 278 280 281 283 285 287 288
228 227 226 227 227 228 228 228 227 228 230 233 235 238 241 244 246 248 250 253 256 257 259 260 261 263 265 266 268 269 270 271 272 273 275 277 278 280 282 284 286 287 289
225 227 228 228 228 229 230 230 230 232 232 234 237 238 241 243 246 250 252 255 257 260 263 265 268 268 269 268 268 270 271 272 273 274 275 278 279 281 285 286 288 287 288
223 223 224 226 228 228 229 231 233 235 235 236 236 239 243 246 249 251 254 256 258 261 264 266 268 269 270 270 270 271 271 273 275 277 280 283 285 286 288 288 287 287 286
218 220 221 223 225 227 229 231 233 235 237 239 239 240 241 244 246 249 252 255 259 262 265 268 269 270 271 272 273 275 276 278 281 284 286 287 287 287 287 285 284 285 288